• In Netherlands
  • List of Countries
  • For 7 days
  • Water Temperature
  • Satellite Maps
  • Weather Map
  • Weather Widgets
  • user-avatar
    Login

    Hourly Weather Wavre

    Today, 18 August, Friday

    Time Temperature Precipitation Wind Pressure Humidity
    00:00 +17°C° 0 mm 2 mps 755 mmHg 93%
    01:00 +17°C° 0.1 mm 2 mps 755 mmHg 93%
    02:00 +17°C° 0.1 mm 2 mps 755 mmHg 94%
    03:00 +17°C° 0.1 mm 3 mps 754 mmHg 95%
    04:00 +18°C° 0.1 mm 3 mps 754 mmHg 95%
    05:00 +18°C° 0.1 mm 3 mps 754 mmHg 94%
    06:00 +18°C° 0.1 mm 3 mps 754 mmHg 94%
    07:00 +19°C° 0.6 mm 3 mps 754 mmHg 93%
    08:00 +19°C° 0.6 mm 3 mps 753 mmHg 91%
    09:00 +19°C° 0.6 mm 3 mps 753 mmHg 90%
    10:00 +19°C° 0.8 mm 3 mps 753 mmHg 88%
    11:00 +19°C° 0.8 mm 4 mps 753 mmHg 86%
    12:00 +19°C° 0.8 mm 4 mps 753 mmHg 84%
    13:00 +20°C° 0.2 mm 4 mps 753 mmHg 81%
    14:00 +20°C° 0.2 mm 5 mps 753 mmHg 77%
    15:00 +21°C° 0.2 mm 5 mps 753 mmHg 73%
    16:00 +20°C° 0.2 mm 5 mps 754 mmHg 74%
    17:00 +19°C° 0.2 mm 5 mps 754 mmHg 75%
    18:00 +18°C° 0.2 mm 4 mps 754 mmHg 76%
    19:00 +17°C° 0 mm 4 mps 754 mmHg 77%
    20:00 +15°C° 0 mm 4 mps 755 mmHg 79%
    21:00 +14°C° 0 mm 4 mps 755 mmHg 80%
    22:00 +13°C° 0 mm 4 mps 756 mmHg 82%
    23:00 +13°C° 0 mm 4 mps 756 mmHg 83%

    Tomorrow, 19 August, Saturday

    Time Temperature Precipitation Wind Pressure Humidity
    00:00 +12°C° 0 mm 4 mps 756 mmHg 84%
    01:00 +12°C° 0 mm 5 mps 756 mmHg 85%
    02:00 +12°C° 0 mm 5 mps 756 mmHg 86%
    03:00 +12°C° 0 mm 5 mps 756 mmHg 86%
    04:00 +12°C° 0 mm 5 mps 756 mmHg 86%
    05:00 +11°C° 0 mm 6 mps 757 mmHg 86%
    06:00 +11°C° 0 mm 6 mps 757 mmHg 85%
    07:00 +13°C° 0 mm 6 mps 757 mmHg 82%
    08:00 +15°C° 0 mm 6 mps 757 mmHg 79%
    09:00 +16°C° 0 mm 6 mps 758 mmHg 76%
    10:00 +16°C° 0.2 mm 6 mps 758 mmHg 73%
    11:00 +17°C° 0.2 mm 6 mps 758 mmHg 71%
    12:00 +19°C° 0.2 mm 6 mps 758 mmHg 68%
    13:00 +19°C° 0.2 mm 6 mps 758 mmHg 65%
    14:00 +20°C° 0.2 mm 6 mps 758 mmHg 61%
    15:00 +20°C° 0.2 mm 6 mps 758 mmHg 57%
    16:00 +19°C° 0.1 mm 5 mps 758 mmHg 62%
    17:00 +19°C° 0.1 mm 4 mps 758 mmHg 67%
    18:00 +18°C° 0.1 mm 4 mps 758 mmHg 72%
    19:00 +17°C° 0.1 mm 4 mps 759 mmHg 77%
    20:00 +14°C° 0.1 mm 4 mps 759 mmHg 81%
    21:00 +13°C° 0.1 mm 4 mps 760 mmHg 86%
    22:00 +13°C° 0 mm 3 mps 760 mmHg 88%
    23:00 +12°C° 0 mm 3 mps 760 mmHg 90%

    Day after tomorrow, 20 August, Sunday

    Time Temperature Precipitation Wind Pressure Humidity
    00:00 +12°C° 0 mm 3 mps 760 mmHg 92%
    01:00 +12°C° 0 mm 3 mps 760 mmHg 92%
    02:00 +11°C° 0 mm 3 mps 760 mmHg 93%
    03:00 +11°C° 0 mm 3 mps 760 mmHg 93%
    04:00 +11°C° 0 mm 3 mps 760 mmHg 92%
    05:00 +11°C° 0 mm 3 mps 761 mmHg 91%
    06:00 +12°C° 0 mm 3 mps 761 mmHg 90%
    07:00 +13°C° 0 mm 3 mps 761 mmHg 82%
    08:00 +15°C° 0 mm 4 mps 761 mmHg 74%
    09:00 +18°C° 0 mm 4 mps 761 mmHg 67%
    10:00 +19°C° 0 mm 4 mps 761 mmHg 63%
    11:00 +20°C° 0 mm 4 mps 761 mmHg 59%
    12:00 +20°C° 0 mm 4 mps 761 mmHg 56%
    13:00 +21°C° 0 mm 4 mps 761 mmHg 56%
    14:00 +21°C° 0 mm 4 mps 761 mmHg 56%
    15:00 +21°C° 0 mm 4 mps 761 mmHg 56%
    16:00 +20°C° 0 mm 3 mps 761 mmHg 61%
    17:00 +19°C° 0 mm 3 mps 761 mmHg 67%
    18:00 +18°C° 0 mm 2 mps 761 mmHg 72%
    19:00 +17°C° 0 mm 2 mps 761 mmHg 74%
    20:00 +16°C° 0 mm 1 mps 762 mmHg 77%
    21:00 +15°C° 0 mm 1 mps 762 mmHg 79%
    22:00 +15°C° 0 mm 1 mps 762 mmHg 81%
    23:00 +15°C° 0 mm 1 mps 762 mmHg 82%

    21 August, Monday

    Time Temperature Precipitation Wind Pressure Humidity
    00:00 +15°C° 0 mm 1 mps 762 mmHg 83%
    01:00 +15°C° 0 mm 1 mps 761 mmHg 85%
    02:00 +14°C° 0 mm 1 mps 761 mmHg 86%
    03:00 +14°C° 0 mm 1 mps 761 mmHg 87%
    04:00 +14°C° 0 mm 1 mps 761 mmHg 87%
    05:00 +15°C° 0 mm 1 mps 761 mmHg 87%
    06:00 +15°C° 0 mm 1 mps 761 mmHg 87%
    07:00 +17°C° 0 mm 2 mps 761 mmHg 80%
    08:00 +18°C° 0 mm 2 mps 761 mmHg 74%
    09:00 +20°C° 0 mm 2 mps 761 mmHg 68%
    10:00 +20°C° 0 mm 2 mps 761 mmHg 66%
    11:00 +21°C° 0 mm 2 mps 761 mmHg 64%
    12:00 +23°C° 0 mm 2 mps 760 mmHg 63%
    13:00 +23°C° 0 mm 2 mps 760 mmHg 64%
    14:00 +23°C° 0 mm 1 mps 760 mmHg 65%
    15:00 +23°C° 0 mm 1 mps 760 mmHg 66%
    16:00 +22°C° 0 mm 1 mps 760 mmHg 69%
    17:00 +22°C° 0 mm 1 mps 760 mmHg 73%
    18:00 +21°C° 0 mm 1 mps 760 mmHg 76%
    19:00 +21°C° 0 mm 1 mps 760 mmHg 77%
    20:00 +20°C° 0 mm 1 mps 760 mmHg 79%
    21:00 +20°C° 0 mm 1 mps 760 mmHg 81%
    22:00 +19°C° 0 mm 1 mps 760 mmHg 83%
    23:00 +17°C° 0 mm 2 mps 760 mmHg 85%

    22 August, Tuesday

    Time Temperature Precipitation Wind Pressure Humidity
    00:00 +17°C° 0 mm 2 mps 759 mmHg 88%
    01:00 +16°C° 0 mm 2 mps 759 mmHg 90%
    02:00 +16°C° 0 mm 2 mps 759 mmHg 91%
    03:00 +16°C° 0 mm 2 mps 759 mmHg 93%
    04:00 +16°C° 0 mm 2 mps 759 mmHg 92%
    05:00 +16°C° 0 mm 2 mps 759 mmHg 91%
    06:00 +17°C° 0 mm 2 mps 759 mmHg 91%
    07:00 +19°C° 0 mm 2 mps 759 mmHg 85%
    08:00 +20°C° 0 mm 2 mps 758 mmHg 79%
    09:00 +23°C° 0 mm 2 mps 758 mmHg 73%
    10:00 +24°C° 0 mm 2 mps 758 mmHg 69%
    11:00 +25°C° 0 mm 2 mps 758 mmHg 65%
    12:00 +26°C° 0 mm 2 mps 757 mmHg 62%
    13:00 +27°C° 0 mm 2 mps 757 mmHg 60%
    14:00 +27°C° 0 mm 2 mps 756 mmHg 58%
    15:00 +28°C° 0 mm 2 mps 756 mmHg 56%
    16:00 +27°C° 0 mm 1 mps 756 mmHg 61%
    17:00 +26°C° 0 mm 1 mps 755 mmHg 65%
    18:00 +25°C° 0 mm 1 mps 755 mmHg 70%
    19:00 +24°C° 0 mm 1 mps 755 mmHg 74%
    20:00 +23°C° 0 mm 1 mps 755 mmHg 78%
    21:00 +21°C° 0 mm 1 mps 755 mmHg 82%
    22:00 +20°C° 0 mm 2 mps 755 mmHg 83%
    23:00 +19°C° 0 mm 2 mps 754 mmHg 84%

    23 August, Wednesday

    Time Temperature Precipitation Wind Pressure Humidity
    00:00 +19°C° 0 mm 2 mps 754 mmHg 84%
    01:00 +19°C° 0 mm 2 mps 754 mmHg 83%
    02:00 +19°C° 0 mm 2 mps 753 mmHg 81%
    03:00 +19°C° 0 mm 2 mps 753 mmHg 80%
    04:00 +19°C° 0 mm 2 mps 753 mmHg 79%
    05:00 +19°C° 0 mm 2 mps 753 mmHg 79%
    06:00 +20°C° 0 mm 2 mps 752 mmHg 78%
    07:00 +21°C° 0.2 mm 2 mps 752 mmHg 76%
    08:00 +22°C° 0.2 mm 3 mps 752 mmHg 73%
    09:00 +25°C° 0.2 mm 3 mps 752 mmHg 71%
    10:00 +26°C° 0 mm 3 mps 752 mmHg 68%
    11:00 +27°C° 0 mm 3 mps 752 mmHg 65%
    12:00 +28°C° 0 mm 4 mps 752 mmHg 62%
    13:00 +28°C° 1.2 mm 4 mps 752 mmHg 64%
    14:00 +28°C° 1.2 mm 5 mps 752 mmHg 67%
    15:00 +28°C° 1.2 mm 5 mps 752 mmHg 70%
    16:00 +26°C° 0.4 mm 5 mps 752 mmHg 73%
    17:00 +25°C° 0.4 mm 5 mps 752 mmHg 76%
    18:00 +22°C° 0.4 mm 4 mps 753 mmHg 79%
    19:00 +20°C° 0 mm 5 mps 753 mmHg 80%
    20:00 +17°C° 0 mm 5 mps 753 mmHg 82%
    21:00 +15°C° 0 mm 5 mps 754 mmHg 83%
    22:00 +15°C° 0 mm 5 mps 754 mmHg 85%
    23:00 +14°C° 0 mm 4 mps 754 mmHg 88%
    Show more